| time (UTC) | temp F | wind direction | speed MPH | gust MPH | rain 1hr in | rain 24hr in | rain mn in | humidity % | barometer mb |
| 20260506211301 | 40 | 305 | 5.0 | 10.0 | 0.00 | 0.00 | 0.00 | 57 | 1011.8 |
| 20260506210301 | 40 | 15 | 2.0 | 5.0 | 0.00 | 0.00 | 0.00 | 54 | 1011.9 |
| 20260506205258 | 40 | 342 | 2.0 | 3.0 | 0.00 | 0.00 | 0.00 | 55 | 1011.9 |
| 20260506204258 | 41 | 342 | 1.0 | 3.0 | 0.00 | 0.00 | 0.00 | 52 | 1011.8 |
| 20260506203300 | 42 | 356 | 0.0 | 2.0 | 0.00 | 0.01 | 0.00 | 48 | 1011.8 |
| 20260506202259 | 42 | 356 | 1.0 | 3.0 | 0.00 | 0.01 | 0.00 | 48 | 1011.8 |
| 20260506201259 | 42 | 21 | 2.0 | 5.0 | 0.00 | 0.01 | 0.00 | 48 | 1011.9 |
| 20260506200301 | 43 | 358 | 3.0 | 8.0 | 0.00 | 0.01 | 0.00 | 48 | 1011.7 |
| 20260506195300 | 44 | 327 | 1.0 | 4.0 | 0.00 | 0.01 | 0.00 | 47 | 1011.5 |
| 20260506194257 | 45 | 239 | 1.0 | 2.0 | 0.00 | 0.01 | 0.00 | 45 | 1011.6 |
| 20260506193739 | 46 | 239 | 1.0 | 2.0 | 0.00 | 0.01 | 0.00 | 40 | 1011.4 |
| 20260506192257 | 46 | 239 | 2.0 | 4.0 | 0.00 | 0.01 | 0.00 | 39 | 1011.2 |
| 20260506191257 | 47 | 162 | 2.0 | 4.0 | 0.00 | 0.01 | 0.00 | 39 | 1011.2 |
| 20260506190257 | 47 | 226 | 3.0 | 10.0 | 0.00 | 0.01 | 0.00 | 35 | 1011.3 |
| 20260506185255 | 47 | 168 | 5.0 | 14.0 | 0.00 | 0.01 | 0.00 | 34 | 1011.2 |
| 20260506184255 | 47 | 283 | 9.0 | 22.0 | 0.00 | 0.01 | 0.00 | 34 | 1011.5 |
| 20260506183254 | 48 | 251 | 2.0 | 5.0 | 0.00 | 0.01 | 0.00 | 41 | 1011.2 |
| 20260506182253 | 48 | 305 | 1.0 | 3.0 | 0.00 | 0.01 | 0.00 | 38 | 1011.0 |
| 20260506181253 | 49 | 45 | 1.0 | 3.0 | 0.00 | 0.01 | 0.00 | 38 | 1010.9 |
| 20260506180250 | 49 | 341 | 1.0 | 7.0 | 0.00 | 0.01 | 0.00 | 34 | 1010.9 |
| 20260506175250 | 49 | 285 | 3.0 | 7.0 | 0.00 | 0.01 | 0.00 | 34 | 1010.9 |
| 20260506174726 | 49 | 295 | 5.0 | 8.0 | 0.00 | 0.01 | 0.00 | 33 | 1010.9 |
| 20260506173250 | 49 | 263 | 2.0 | 6.0 | 0.00 | 0.01 | 0.00 | 32 | 1010.7 |
| 20260506172250 | 50 | 241 | 4.0 | 9.0 | 0.00 | 0.01 | 0.00 | 31 | 1010.6 |
| 20260506171722 | 50 | 258 | 4.0 | 11.0 | 0.00 | 0.01 | 0.00 | 30 | 1010.5 |
| 20260506171230 | 50 | 245 | 2.0 | 6.0 | 0.00 | 0.01 | 0.00 | 31 | 1010.5 |
| 20260506165242 | 50 | 204 | 5.0 | 13.0 | 0.00 | 0.01 | 0.00 | 31 | 1010.5 |
| 20260506164726 | 50 | 224 | 4.0 | 11.0 | 0.00 | 0.01 | 0.00 | 30 | 1010.6 |
| 20260506163243 | 50 | 206 | 4.0 | 9.0 | 0.00 | 0.01 | 0.00 | 30 | 1010.6 |
| 20260506162243 | 50 | 238 | 5.0 | 10.0 | 0.00 | 0.01 | 0.00 | 29 | 1010.6 |
| 20260506161242 | 50 | 277 | 7.0 | 15.0 | 0.00 | 0.01 | 0.00 | 28 | 1010.5 |
| 20260506160244 | 51 | 267 | 8.0 | 16.0 | 0.00 | 0.01 | 0.00 | 28 | 1010.5 |
| 20260506155242 | 51 | 134 | 4.0 | 10.0 | 0.00 | 0.01 | 0.00 | 29 | 1010.3 |
| 20260506154242 | 51 | 189 | 4.0 | 11.0 | 0.00 | 0.01 | 0.00 | 27 | 1010.4 |
| 20260506153243 | 51 | 244 | 3.0 | 9.0 | 0.00 | 0.01 | 0.00 | 27 | 1010.6 |
| 20260506152236 | 51 | 206 | 5.0 | 11.0 | 0.00 | 0.01 | 0.00 | 27 | 1010.6 |
| 20260506152200 | 51 | 242 | 3.0 | 13.0 | 0.00 | 0.01 | 0.00 | 27 | 1010.6 |
| 20260506150713 | 51 | 300 | 4.0 | 10.0 | 0.00 | 0.01 | 0.00 | 28 | 1010.7 |
| 20260506145236 | 51 | 214 | 2.0 | 4.0 | 0.00 | 0.01 | 0.00 | 32 | 1010.6 |
| 20260506144236 | 51 | 69 | 3.0 | 6.0 | 0.00 | 0.01 | 0.00 | 30 | 1010.6 |
| 20260506143717 | 52 | 58 | 4.0 | 8.0 | 0.00 | 0.01 | 0.00 | 29 | 1010.8 |
| 20260506142238 | 51 | 46 | 4.0 | 10.0 | 0.00 | 0.01 | 0.00 | 32 | 1010.8 |
| 20260506141236 | 52 | 144 | 6.0 | 11.0 | 0.00 | 0.01 | 0.00 | 31 | 1010.9 |
| 20260506140234 | 52 | 110 | 5.0 | 11.0 | 0.00 | 0.01 | 0.00 | 32 | 1010.9 |
| 20260506135709 | 51 | 108 | 4.0 | 10.0 | 0.00 | 0.01 | 0.00 | 33 | 1011.0 |
| 20260506134234 | 50 | 143 | 3.0 | 9.0 | 0.00 | 0.01 | 0.00 | 32 | 1011.1 |
| 20260506133234 | 51 | 124 | 4.0 | 7.0 | 0.00 | 0.01 | 0.00 | 37 | 1011.1 |
| 20260506132235 | 51 | 102 | 5.0 | 10.0 | 0.00 | 0.01 | 0.00 | 34 | 1011.3 |
| 20260506131233 | 53 | 224 | 5.0 | 12.0 | 0.00 | 0.01 | 0.00 | 28 | 1011.3 |
| 20260506130235 | 53 | 125 | 3.0 | 7.0 | 0.00 | 0.01 | 0.00 | 29 | 1011.3 |
| 20260506125234 | 53 | 108 | 6.0 | 15.0 | 0.00 | 0.01 | 0.00 | 30 | 1011.3 |
| 20260506124233 | 53 | 74 | 9.0 | 17.0 | 0.00 | 0.01 | 0.00 | 29 | 1011.2 |
| 20260506123229 | 53 | 71 | 8.0 | 17.0 | 0.00 | 0.01 | 0.00 | 35 | 1011.3 |
| 20260506122231 | 54 | 139 | 6.0 | 14.0 | 0.00 | 0.01 | 0.00 | 32 | 1011.6 |
| 20260506121229 | 52 | 90 | 6.0 | 10.0 | 0.00 | 0.01 | 0.00 | 33 | 1011.7 |
| 20260506120230 | 49 | 79 | 3.0 | 8.0 | 0.00 | 0.01 | 0.00 | 37 | 1011.9 |
| 20260506115229 | 48 | 58 | 3.0 | 7.0 | 0.00 | 0.01 | 0.00 | 35 | 1011.9 |
| 20260506114230 | 48 | 71 | 5.0 | 8.0 | 0.00 | 0.01 | 0.00 | 36 | 1011.9 |
| 20260506113230 | 48 | 59 | 3.0 | 6.0 | 0.00 | 0.01 | 0.00 | 36 | 1012.0 |
| 20260506112230 | 49 | 61 | 2.0 | 5.0 | 0.00 | 0.01 | 0.00 | 34 | 1012.1 |
| 20260506111229 | 48 | 15 | 2.0 | 6.0 | 0.00 | 0.01 | 0.00 | 34 | 1012.0 |
| 20260506110229 | 50 | 66 | 3.0 | 7.0 | 0.00 | 0.01 | 0.00 | 34 | 1012.0 |
| 20260506105229 | 48 | 46 | 3.0 | 8.0 | 0.00 | 0.01 | 0.00 | 35 | 1012.0 |
| 20260506104230 | 49 | 56 | 5.0 | 9.0 | 0.00 | 0.01 | 0.00 | 35 | 1012.3 |
| 20260506103229 | 47 | 85 | 6.0 | 10.0 | 0.00 | 0.01 | 0.00 | 37 | 1012.4 |
| 20260506102229 | 47 | 87 | 4.0 | 9.0 | 0.00 | 0.01 | 0.00 | 37 | 1012.4 |
| 20260506101229 | 47 | 60 | 4.0 | 8.0 | 0.00 | 0.01 | 0.00 | 36 | 1012.5 |
| 20260506100229 | 49 | 54 | 7.0 | 13.0 | 0.00 | 0.01 | 0.00 | 34 | 1012.6 |
| 20260506095708 | 51 | 128 | 7.0 | 16.0 | 0.00 | 0.01 | 0.00 | 33 | 1012.5 |
| 20260506094228 | 50 | 104 | 6.0 | 12.0 | 0.00 | 0.01 | 0.00 | 34 | 1012.6 |
| 20260506093229 | 51 | 84 | 7.0 | 13.0 | 0.00 | 0.01 | 0.00 | 36 | 1012.6 |
| 20260506092229 | 50 | 73 | 5.0 | 10.0 | 0.00 | 0.01 | 0.00 | 34 | 1012.7 |
| 20260506091709 | 49 | 83 | 6.0 | 11.0 | 0.00 | 0.01 | 0.00 | 36 | 1012.8 |
| 20260506090229 | 49 | 106 | 6.0 | 12.0 | 0.00 | 0.01 | 0.00 | 39 | 1012.9 |
| 20260506085710 | 48 | 74 | 6.0 | 11.0 | 0.00 | 0.01 | 0.00 | 41 | 1013.0 |
| 20260506084229 | 47 | 62 | 6.0 | 11.0 | 0.00 | 0.01 | 0.00 | 40 | 1013.0 |
| 20260506083229 | 46 | 75 | 6.0 | 10.0 | 0.00 | 0.01 | 0.00 | 43 | 1013.2 |
| 20260506082229 | 45 | 82 | 6.0 | 9.0 | 0.00 | 0.01 | 0.00 | 45 | 1013.2 |
| 20260506081230 | 43 | 88 | 6.0 | 10.0 | 0.00 | 0.01 | 0.00 | 47 | 1013.2 |
| 20260506080724 | 43 | 54 | 5.0 | 9.0 | 0.00 | 0.01 | 0.00 | 48 | 1013.2 |
| 20260506080201 | 43 | 47 | 4.0 | 9.0 | 0.00 | 0.01 | 0.00 | 49 | 1013.2 |
| 20260506073228 | 41 | 88 | 3.0 | 7.0 | 0.00 | 0.01 | 0.00 | 57 | 1013.2 |
| 20260506072229 | 40 | 87 | 3.0 | 6.0 | 0.00 | 0.01 | 0.00 | 62 | 1013.3 |
| 20260506071232 | 37 | 51 | 2.0 | 4.0 | 0.00 | 0.01 | 0.00 | 70 | 1013.3 |
| 20260506070230 | 35 | 87 | 3.0 | 5.0 | 0.00 | 0.01 | 0.00 | 73 | 1013.3 |
| 20260506062228 | 31 | 58 | 1.0 | 3.0 | 0.00 | 0.01 | 0.00 | 79 | 1013.3 |
| 20260506061229 | 30 | 58 | 1.0 | 2.0 | 0.00 | 0.01 | 0.00 | 79 | 1013.4 |
| 20260506060229 | 29 | 43 | 1.0 | 3.0 | 0.00 | 0.01 | 0.00 | 78 | 1013.4 |
| 20260506051228 | 27 | 339 | 4.0 | 5.0 | 0.00 | 0.01 | 0.00 | 80 | 1013.4 |
| 20260506050228 | 26 | 317 | 4.0 | 7.0 | 0.00 | 0.01 | 0.00 | 81 | 1013.3 |
| 20260506044229 | 25 | 343 | 3.0 | 7.0 | 0.00 | 0.01 | 0.00 | 83 | 1013.3 |
| 20260506043229 | 24 | 345 | 3.0 | 5.0 | 0.00 | 0.01 | 0.00 | 84 | 1013.3 |
| 20260506042227 | 24 | 335 | 3.0 | 4.0 | 0.00 | 0.01 | 0.00 | 84 | 1013.2 |
| 20260506041225 | 24 | 4 | 3.0 | 6.0 | 0.00 | 0.01 | 0.00 | 84 | 1013.1 |
| 20260506040223 | 23 | 356 | 2.0 | 5.0 | 0.00 | 0.01 | 0.00 | 85 | 1013.2 |
| 20260506035223 | 23 | 350 | 2.0 | 4.0 | 0.00 | 0.01 | 0.00 | 85 | 1013.2 |
| 20260506034711 | 23 | 351 | 3.0 | 6.0 | 0.00 | 0.01 | 0.00 | 85 | 1013.1 |
| 20260506033223 | 23 | 341 | 2.0 | 4.0 | 0.00 | 0.01 | 0.00 | 84 | 1012.9 |
| 20260506032224 | 23 | 287 | 1.0 | 3.0 | 0.00 | 0.01 | 0.00 | 85 | 1012.9 |
| 20260506031702 | 23 | 295 | 3.0 | 8.0 | 0.00 | 0.01 | 0.00 | 84 | 1012.9 |
| 20260506030223 | 23 | 305 | 7.0 | 10.0 | 0.00 | 0.01 | 0.00 | 84 | 1012.8 |
| 20260506025223 | 23 | 316 | 7.0 | 9.0 | 0.00 | 0.01 | 0.00 | 84 | 1012.8 |
| 20260506024222 | 23 | 331 | 6.0 | 10.0 | 0.00 | 0.01 | 0.00 | 84 | 1012.7 |
| 20260506023223 | 23 | 305 | 4.0 | 8.0 | 0.00 | 0.01 | 0.00 | 85 | 1012.7 |
| 20260506022222 | 23 | 331 | 4.0 | 8.0 | 0.00 | 0.01 | 0.00 | 84 | 1012.8 |
| 20260506021223 | 23 | 305 | 5.0 | 8.0 | 0.00 | 0.01 | 0.00 | 85 | 1012.7 |
| 20260506020220 | 23 | 293 | 3.0 | 5.0 | 0.00 | 0.01 | 0.00 | 85 | 1012.6 |
| 20260506015221 | 23 | 270 | 4.0 | 6.0 | 0.00 | 0.01 | 0.00 | 85 | 1012.6 |
| 20260506014221 | 23 | 300 | 4.0 | 6.0 | 0.00 | 0.01 | 0.00 | 85 | 1012.6 |
| 20260506013221 | 23 | 300 | 4.0 | 6.0 | 0.00 | 0.01 | 0.00 | 85 | 1012.5 |
| 20260506012655 | 23 | 310 | 4.0 | 5.0 | 0.00 | 0.01 | 0.00 | 85 | 1012.4 |
| 20260506011221 | 23 | 310 | 2.0 | 4.0 | 0.00 | 0.01 | 0.00 | 85 | 1012.3 |
| 20260506010222 | 24 | 288 | 2.0 | 3.0 | 0.00 | 0.01 | 0.00 | 85 | 1012.3 |
| 20260506005220 | 24 | 265 | 4.0 | 7.0 | 0.00 | 0.01 | 0.00 | 86 | 1012.0 |
| 20260506004705 | 24 | 305 | 4.0 | 7.0 | 0.00 | 0.01 | 0.00 | 86 | 1012.0 |
| 20260506004139 | 24 | 329 | 3.0 | 5.0 | 0.00 | 0.01 | 0.00 | 86 | 1011.9 |
| 20260506002656 | 24 | 327 | 4.0 | 7.0 | 0.00 | 0.01 | 0.00 | 86 | 1012.0 |
| 20260506001221 | 24 | 293 | 2.0 | 4.0 | 0.00 | 0.01 | 0.00 | 85 | 1011.9 |
| 20260506000221 | 24 | 285 | 2.0 | 3.0 | 0.00 | 0.01 | 0.00 | 85 | 1011.9 |
| 20260505235218 | 24 | 262 | 1.0 | 2.0 | 0.00 | 0.01 | 0.00 | 84 | 1011.8 |
| 20260505234219 | 24 | 257 | 1.0 | 3.0 | 0.00 | 0.01 | 0.00 | 84 | 1011.8 |
| 20260505233220 | 25 | 206 | 1.0 | 3.0 | 0.00 | 0.01 | 0.00 | 84 | 1011.8 |
| 20260505232218 | 25 | 351 | 0.0 | 1.0 | 0.00 | 0.01 | 0.00 | 84 | 1011.7 |
| 20260505231216 | 25 | 351 | 0.0 | 1.0 | 0.00 | 0.01 | 0.00 | 84 | 1011.6 |
| 20260505230217 | 25 | 351 | 0.0 | 1.0 | 0.00 | 0.01 | 0.00 | 84 | 1011.6 |
| 20260505225217 | 26 | 351 | 1.0 | 2.0 | 0.00 | 0.01 | 0.00 | 84 | 1011.6 |
| 20260505224216 | 26 | 351 | 1.0 | 2.0 | 0.00 | 0.01 | 0.00 | 84 | 1011.6 |
| 20260505223214 | 26 | 351 | 0.0 | 2.0 | 0.00 | 0.01 | 0.00 | 84 | 1011.6 |
| 20260505222215 | 26 | 338 | 1.0 | 2.0 | 0.00 | 0.01 | 0.00 | 83 | 1011.5 |
| 20260505221214 | 26 | 330 | 0.0 | 2.0 | 0.00 | 0.01 | 0.00 | 83 | 1011.4 |
| 20260505220215 | 27 | 330 | 1.0 | 2.0 | 0.00 | 0.01 | 0.00 | 82 | 1011.2 |
| 20260505215211 | 27 | 327 | 3.0 | 5.0 | 0.00 | 0.01 | 0.01 | 81 | 1011.2 |
| 20260505214643 | 27 | 276 | 2.0 | 5.0 | 0.00 | 0.01 | 0.01 | 80 | 1011.2 |
| 20260505213648 | 27 | 327 | 1.0 | 3.0 | 0.01 | 0.01 | 0.01 | 79 | 1011.2 |